| time (UTC) | temp F | wind direction | speed MPH | gust MPH | rain 1hr in | rain 24hr in | rain mn in | humidity % | barometer mb |
| 20260510192707 | 69 | 320 | 1.0 | 5.0 | 0.00 | 0.00 | 0.00 | 41 | 1017.4 |
| 20260510192047 | 70 | 268 | 1.0 | 10.0 | 0.00 | 0.00 | 0.00 | 43 | 1017.3 |
| 20260510191615 | 70 | 319 | 1.0 | 11.0 | 0.00 | 0.00 | 0.00 | 44 | 1017.4 |
| 20260510191222 | 70 | 333 | 3.0 | 11.0 | 0.00 | 0.00 | 0.00 | 42 | 1017.4 |
| 20260510190555 | 70 | 282 | 2.0 | 7.0 | 0.00 | 0.00 | 0.00 | 45 | 1017.5 |
| 20260510190523 | 70 | 282 | 2.0 | 7.0 | 0.00 | 0.00 | 0.00 | 45 | 1017.5 |
| 20260510190113 | 69 | 271 | 2.0 | 7.0 | 0.00 | 0.00 | 0.00 | 47 | 1017.5 |
| 20260510185623 | 68 | 327 | 2.0 | 7.0 | 0.00 | 0.00 | 0.00 | 45 | 1017.5 |
| 20260510185020 | 68 | 285 | 1.0 | 8.0 | 0.00 | 0.00 | 0.00 | 44 | 1017.6 |
| 20260510184629 | 67 | 301 | 1.0 | 8.0 | 0.00 | 0.00 | 0.00 | 46 | 1017.7 |
| 20260510184102 | 67 | 5 | 0.0 | 10.0 | 0.00 | 0.00 | 0.00 | 46 | 1017.6 |
| 20260510183522 | 67 | 17 | 3.0 | 10.0 | 0.00 | 0.00 | 0.00 | 42 | 1017.6 |
| 20260510183123 | 69 | 318 | 5.0 | 10.0 | 0.00 | 0.00 | 0.00 | 41 | 1017.6 |
| 20260510182553 | 69 | 0 | 0.0 | 4.0 | 0.00 | 0.00 | 0.00 | 49 | 1017.6 |
| 20260510182120 | 69 | 321 | 2.0 | 10.0 | 0.00 | 0.00 | 0.00 | 41 | 1017.5 |
| 20260510181606 | 69 | 330 | 3.0 | 10.0 | 0.00 | 0.00 | 0.00 | 41 | 1017.6 |
| 20260510181110 | 68 | 26 | 4.0 | 10.0 | 0.00 | 0.00 | 0.00 | 40 | 1017.6 |
| 20260510180642 | 69 | 323 | 2.0 | 8.0 | 0.00 | 0.00 | 0.00 | 46 | 1017.6 |
| 20260510180229 | 69 | 5 | 2.0 | 6.0 | 0.00 | 0.00 | 0.00 | 39 | 1017.5 |
| 20260510175538 | 69 | 360 | 1.0 | 7.0 | 0.00 | 0.00 | 0.00 | 40 | 1017.4 |
| 20260510175035 | 68 | 0 | 2.0 | 7.0 | 0.00 | 0.00 | 0.00 | 48 | 1017.5 |
| 20260510174538 | 67 | 294 | 1.0 | 9.0 | 0.00 | 0.00 | 0.00 | 45 | 1017.4 |
| 20260510174147 | 67 | 360 | 2.0 | 9.0 | 0.00 | 0.00 | 0.00 | 42 | 1017.5 |
| 20260510173556 | 67 | 315 | 1.0 | 6.0 | 0.00 | 0.00 | 0.00 | 40 | 1017.4 |
| 20260510173210 | 67 | 350 | 2.0 | 8.0 | 0.00 | 0.00 | 0.00 | 42 | 1017.6 |
| 20260510172539 | 67 | 335 | 3.0 | 8.0 | 0.00 | 0.00 | 0.00 | 42 | 1017.5 |
| 20260510172055 | 67 | 329 | 2.0 | 8.0 | 0.00 | 0.00 | 0.00 | 46 | 1017.5 |
| 20260510171541 | 67 | 5 | 2.0 | 11.0 | 0.00 | 0.00 | 0.00 | 45 | 1017.6 |
| 20260510171018 | 67 | 325 | 4.0 | 11.0 | 0.00 | 0.00 | 0.00 | 46 | 1017.6 |
| 20260510170526 | 66 | 292 | 3.0 | 6.0 | 0.00 | 0.00 | 0.00 | 52 | 1017.5 |
| 20260510170236 | 66 | 34 | 2.0 | 5.0 | 0.00 | 0.00 | 0.00 | 45 | 1017.4 |
| 20260510165535 | 66 | 321 | 2.0 | 10.0 | 0.00 | 0.00 | 0.00 | 45 | 1017.5 |
| 20260510165058 | 65 | 0 | 1.0 | 10.0 | 0.00 | 0.00 | 0.00 | 47 | 1017.5 |
| 20260510164804 | 65 | 324 | 2.0 | 7.0 | 0.00 | 0.00 | 0.00 | 52 | 1017.3 |
| 20260510164623 | 65 | 324 | 2.0 | 7.0 | 0.00 | 0.00 | 0.00 | 52 | 1017.3 |
| 20260510164100 | 65 | 355 | 2.0 | 8.0 | 0.00 | 0.00 | 0.00 | 53 | 1017.1 |
| 20260510163527 | 65 | 35 | 1.0 | 10.0 | 0.00 | 0.00 | 0.00 | 47 | 1017.1 |
| 20260510163035 | 66 | 330 | 2.0 | 11.0 | 0.00 | 0.00 | 0.00 | 44 | 1017.1 |
| 20260510162522 | 66 | 10 | 6.0 | 11.0 | 0.00 | 0.00 | 0.00 | 42 | 1017.1 |
| 20260510162122 | 66 | 338 | 2.0 | 10.0 | 0.00 | 0.00 | 0.00 | 47 | 1017.1 |
| 20260510162027 | 66 | 338 | 2.0 | 10.0 | 0.00 | 0.00 | 0.00 | 47 | 1017.1 |
| 20260510161614 | 65 | 355 | 4.0 | 10.0 | 0.00 | 0.00 | 0.00 | 45 | 1017.0 |
| 20260510161029 | 65 | 360 | 3.0 | 9.0 | 0.00 | 0.00 | 0.00 | 50 | 1017.0 |
| 20260510160543 | 64 | 331 | 3.0 | 11.0 | 0.00 | 0.00 | 0.00 | 48 | 1017.1 |
| 20260510160141 | 64 | 345 | 3.0 | 11.0 | 0.00 | 0.00 | 0.00 | 46 | 1017.1 |
| 20260510155554 | 64 | 340 | 5.0 | 12.0 | 0.00 | 0.00 | 0.00 | 46 | 1017.3 |
| 20260510155153 | 64 | 331 | 5.0 | 12.0 | 0.00 | 0.00 | 0.00 | 43 | 1017.2 |
| 20260510154641 | 64 | 5 | 3.0 | 10.0 | 0.00 | 0.00 | 0.00 | 47 | 1017.2 |
| 20260510154034 | 63 | 323 | 1.0 | 10.0 | 0.00 | 0.00 | 0.00 | 48 | 1017.2 |
| 20260510153537 | 63 | 344 | 3.0 | 10.0 | 0.00 | 0.00 | 0.00 | 51 | 1017.2 |
| 20260510153118 | 63 | 333 | 2.0 | 7.0 | 0.00 | 0.00 | 0.00 | 50 | 1017.1 |
| 20260510152553 | 63 | 313 | 3.0 | 7.0 | 0.00 | 0.00 | 0.00 | 50 | 1017.0 |
| 20260510152024 | 63 | 336 | 1.0 | 5.0 | 0.00 | 0.00 | 0.00 | 52 | 1016.9 |
| 20260510151555 | 62 | 9 | 3.0 | 5.0 | 0.00 | 0.00 | 0.00 | 49 | 1016.9 |
| 20260510151127 | 62 | 51 | 2.0 | 5.0 | 0.00 | 0.00 | 0.00 | 52 | 1016.8 |
| 20260510150521 | 62 | 340 | 2.0 | 5.0 | 0.00 | 0.00 | 0.00 | 51 | 1016.7 |
| 20260510150147 | 63 | 49 | 1.0 | 3.0 | 0.00 | 0.00 | 0.00 | 50 | 1016.7 |
| 20260510150005 | 62 | 39 | 1.0 | 3.0 | 0.00 | 0.00 | 0.00 | 51 | 1016.7 |
| 20260510145741 | 62 | 39 | 1.0 | 3.0 | 0.00 | 0.00 | 0.00 | 51 | 1016.7 |
| 20260510145306 | 62 | 37 | 1.0 | 4.0 | 0.00 | 0.00 | 0.00 | 53 | 1016.7 |
| 20260510144655 | 62 | 69 | 2.0 | 5.0 | 0.00 | 0.00 | 0.00 | 51 | 1016.7 |
| 20260510144132 | 61 | 52 | 2.0 | 5.0 | 0.00 | 0.00 | 0.00 | 53 | 1016.7 |
| 20260510143528 | 61 | 59 | 1.0 | 5.0 | 0.00 | 0.00 | 0.00 | 51 | 1016.5 |
| 20260510143042 | 61 | 49 | 1.0 | 6.0 | 0.00 | 0.00 | 0.00 | 50 | 1016.6 |
| 20260510142604 | 61 | 59 | 2.0 | 6.0 | 0.00 | 0.00 | 0.00 | 51 | 1016.5 |
| 20260510142136 | 61 | 59 | 2.0 | 6.0 | 0.00 | 0.00 | 0.00 | 51 | 1016.4 |
| 20260510141552 | 61 | 49 | 2.0 | 4.0 | 0.00 | 0.00 | 0.00 | 54 | 1016.4 |
| 20260510141035 | 61 | 48 | 1.0 | 3.0 | 0.00 | 0.00 | 0.00 | 53 | 1016.4 |
| 20260510140539 | 60 | 53 | 1.0 | 5.0 | 0.00 | 0.00 | 0.00 | 58 | 1016.3 |
| 20260510140046 | 60 | 53 | 2.0 | 5.0 | 0.00 | 0.00 | 0.00 | 56 | 1016.3 |
| 20260510135521 | 60 | 46 | 2.0 | 5.0 | 0.00 | 0.00 | 0.00 | 59 | 1016.3 |
| 20260510135022 | 60 | 51 | 3.0 | 6.0 | 0.00 | 0.00 | 0.00 | 55 | 1016.3 |
| 20260510134612 | 60 | 355 | 1.0 | 6.0 | 0.00 | 0.00 | 0.00 | 57 | 1016.3 |
| 20260510134036 | 60 | 61 | 1.0 | 5.0 | 0.00 | 0.00 | 0.00 | 57 | 1016.2 |
| 20260510133532 | 60 | 48 | 1.0 | 5.0 | 0.00 | 0.00 | 0.00 | 58 | 1016.0 |
| 20260510133116 | 60 | 43 | 1.0 | 5.0 | 0.00 | 0.00 | 0.00 | 57 | 1016.0 |
| 20260510132725 | 60 | 5 | 1.0 | 6.0 | 0.00 | 0.00 | 0.00 | 60 | 1015.9 |
| 20260510132626 | 60 | 5 | 1.0 | 6.0 | 0.00 | 0.00 | 0.00 | 60 | 1015.9 |
| 20260510132315 | 59 | 5 | 2.0 | 6.0 | 0.00 | 0.00 | 0.00 | 65 | 1015.8 |
| 20260510131608 | 59 | 355 | 1.0 | 4.0 | 0.00 | 0.00 | 0.00 | 68 | 1015.6 |
| 20260510131021 | 58 | 53 | 2.0 | 5.0 | 0.00 | 0.00 | 0.00 | 59 | 1015.4 |
| 20260510130529 | 58 | 49 | 2.0 | 6.0 | 0.00 | 0.00 | 0.00 | 60 | 1015.2 |
| 20260510130121 | 58 | 54 | 3.0 | 6.0 | 0.00 | 0.00 | 0.00 | 60 | 1015.1 |
| 20260510125544 | 58 | 50 | 1.0 | 4.0 | 0.00 | 0.00 | 0.00 | 62 | 1015.0 |
| 20260510125035 | 57 | 53 | 2.0 | 5.0 | 0.00 | 0.00 | 0.00 | 61 | 1014.9 |
| 20260510124817 | 57 | 40 | 2.0 | 5.0 | 0.00 | 0.00 | 0.00 | 61 | 1014.9 |
| 20260510124659 | 57 | 40 | 2.0 | 5.0 | 0.00 | 0.00 | 0.00 | 61 | 1014.9 |
| 20260510124122 | 57 | 66 | 2.0 | 5.0 | 0.00 | 0.00 | 0.00 | 62 | 1014.7 |
| 20260510123531 | 57 | 55 | 2.0 | 5.0 | 0.00 | 0.00 | 0.00 | 63 | 1014.8 |
| 20260510123037 | 57 | 45 | 2.0 | 4.0 | 0.00 | 0.00 | 0.00 | 63 | 1014.7 |
| 20260510122553 | 57 | 57 | 1.0 | 4.0 | 0.00 | 0.00 | 0.00 | 64 | 1014.6 |
| 20260510122021 | 56 | 56 | 2.0 | 4.0 | 0.00 | 0.00 | 0.00 | 64 | 1014.5 |
| 20260510121556 | 56 | 35 | 2.0 | 4.0 | 0.00 | 0.00 | 0.00 | 65 | 1014.4 |
| 20260510121113 | 56 | 0 | 1.0 | 3.0 | 0.00 | 0.00 | 0.00 | 66 | 1014.4 |
| 20260510120625 | 56 | 46 | 1.0 | 3.0 | 0.00 | 0.00 | 0.00 | 67 | 1014.4 |
| 20260510120039 | 55 | 0 | 0.0 | 3.0 | 0.00 | 0.00 | 0.00 | 68 | 1014.3 |
| 20260510115547 | 55 | 41 | 1.0 | 3.0 | 0.00 | 0.00 | 0.00 | 68 | 1014.2 |
| 20260510115031 | 55 | 35 | 1.0 | 3.0 | 0.00 | 0.00 | 0.00 | 68 | 1014.1 |
| 20260510114539 | 55 | 27 | 0.0 | 3.0 | 0.00 | 0.00 | 0.00 | 69 | 1014.0 |
| 20260510114031 | 55 | 0 | 0.0 | 1.0 | 0.00 | 0.00 | 0.00 | 70 | 1014.0 |
| 20260510113611 | 55 | 0 | 0.0 | 2.0 | 0.00 | 0.00 | 0.00 | 70 | 1013.7 |
| 20260510113101 | 55 | 0 | 0.0 | 2.0 | 0.00 | 0.00 | 0.00 | 70 | 1013.7 |
| 20260510112535 | 55 | 0 | 0.0 | 2.0 | 0.00 | 0.00 | 0.00 | 69 | 1013.6 |
| 20260510112145 | 54 | 0 | 0.0 | 2.0 | 0.00 | 0.00 | 0.00 | 69 | 1013.5 |
| 20260510111625 | 55 | 22 | 0.0 | 4.0 | 0.00 | 0.00 | 0.00 | 69 | 1013.3 |
| 20260510111258 | 55 | 0 | 0.0 | 4.0 | 0.00 | 0.00 | 0.00 | 69 | 1013.2 |
| 20260510110522 | 54 | 0 | 0.0 | 2.0 | 0.00 | 0.00 | 0.00 | 69 | 1013.2 |
| 20260510110114 | 55 | 355 | 0.0 | 2.0 | 0.00 | 0.00 | 0.00 | 69 | 1013.2 |
| 20260510105547 | 55 | 0 | 0.0 | 3.0 | 0.00 | 0.00 | 0.00 | 69 | 1013.0 |
| 20260510105037 | 55 | 355 | 1.0 | 3.0 | 0.00 | 0.00 | 0.00 | 69 | 1013.0 |
| 20260510104649 | 55 | 340 | 1.0 | 3.0 | 0.00 | 0.00 | 0.00 | 69 | 1012.9 |
| 20260510104059 | 55 | 0 | 0.0 | 0.0 | 0.00 | 0.00 | 0.00 | 71 | 1013.0 |
| 20260510103635 | 55 | 0 | 0.0 | 4.0 | 0.00 | 0.00 | 0.00 | 71 | 1013.0 |
| 20260510103538 | 55 | 0 | 0.0 | 4.0 | 0.00 | 0.00 | 0.00 | 71 | 1013.0 |
| 20260510103113 | 55 | 0 | 1.0 | 4.0 | 0.00 | 0.00 | 0.00 | 75 | 1013.1 |
| 20260510103041 | 55 | 0 | 1.0 | 4.0 | 0.00 | 0.00 | 0.00 | 75 | 1013.1 |
| 20260510102535 | 55 | 0 | 0.0 | 2.0 | 0.00 | 0.00 | 0.00 | 69 | 1013.0 |
| 20260510102059 | 55 | 53 | 0.0 | 2.0 | 0.00 | 0.00 | 0.00 | 70 | 1012.8 |
| 20260510101552 | 55 | 54 | 0.0 | 2.0 | 0.00 | 0.00 | 0.00 | 69 | 1012.9 |
| 20260510101211 | 55 | 0 | 0.0 | 2.0 | 0.00 | 0.00 | 0.00 | 70 | 1012.7 |
| 20260510100533 | 55 | 53 | 0.0 | 3.0 | 0.00 | 0.00 | 0.00 | 69 | 1012.7 |
| 20260510100120 | 55 | 53 | 1.0 | 3.0 | 0.00 | 0.00 | 0.00 | 68 | 1012.7 |
| 20260510095524 | 55 | 0 | 0.0 | 3.0 | 0.00 | 0.04 | 0.00 | 69 | 1012.8 |
| 20260510095117 | 55 | 360 | 0.0 | 3.0 | 0.00 | 0.04 | 0.00 | 69 | 1012.7 |
| 20260510094841 | 55 | 360 | 0.0 | 3.0 | 0.00 | 0.04 | 0.00 | 70 | 1012.6 |
| 20260510094020 | 55 | 0 | 0.0 | 2.0 | 0.00 | 0.04 | 0.00 | 71 | 1012.5 |
| 20260510093543 | 55 | 360 | 0.0 | 3.0 | 0.00 | 0.04 | 0.00 | 71 | 1012.4 |
| 20260510093359 | 55 | 0 | 0.0 | 3.0 | 0.00 | 0.04 | 0.00 | 71 | 1012.4 |
| 20260510093250 | 55 | 0 | 0.0 | 3.0 | 0.00 | 0.04 | 0.00 | 71 | 1012.4 |
| 20260510092646 | 55 | 360 | 0.0 | 3.0 | 0.00 | 0.04 | 0.00 | 70 | 1012.4 |
| 20260510092538 | 55 | 360 | 0.0 | 3.0 | 0.00 | 0.04 | 0.00 | 70 | 1012.4 |
| 20260510092019 | 55 | 360 | 0.0 | 3.0 | 0.00 | 0.04 | 0.00 | 70 | 1012.3 |
| 20260510091625 | 55 | 360 | 0.0 | 2.0 | 0.00 | 0.04 | 0.00 | 71 | 1012.3 |
| 20260510091140 | 56 | 0 | 0.0 | 3.0 | 0.00 | 0.04 | 0.00 | 70 | 1012.3 |
| 20260510090633 | 56 | 0 | 0.0 | 3.0 | 0.00 | 0.04 | 0.00 | 71 | 1012.3 |
| 20260510090254 | 56 | 360 | 1.0 | 3.0 | 0.00 | 0.04 | 0.00 | 69 | 1012.1 |
| 20260510090151 | 56 | 360 | 1.0 | 3.0 | 0.00 | 0.04 | 0.00 | 69 | 1012.1 |
| 20260510085817 | 56 | 0 | 0.0 | 3.0 | 0.00 | 0.08 | 0.00 | 69 | 1012.1 |
| 20260510085054 | 56 | 0 | 0.0 | 3.0 | 0.00 | 0.08 | 0.00 | 70 | 1012.2 |
| 20260510084539 | 56 | 0 | 0.0 | 3.0 | 0.00 | 0.08 | 0.00 | 69 | 1012.0 |
| 20260510084112 | 57 | 360 | 0.0 | 5.0 | 0.00 | 0.08 | 0.00 | 69 | 1012.0 |
| 20260510084019 | 57 | 360 | 0.0 | 5.0 | 0.00 | 0.08 | 0.00 | 69 | 1012.0 |
| 20260510083605 | 57 | 0 | 0.0 | 5.0 | 0.00 | 0.08 | 0.00 | 70 | 1011.8 |
| 20260510083144 | 57 | 9 | 0.0 | 4.0 | 0.00 | 0.08 | 0.00 | 69 | 1011.7 |
| 20260510082520 | 57 | 355 | 0.0 | 4.0 | 0.00 | 0.08 | 0.00 | 69 | 1011.7 |
| 20260510082059 | 57 | 9 | 1.0 | 4.0 | 0.00 | 0.08 | 0.00 | 71 | 1011.6 |
| 20260510081541 | 58 | 355 | 0.0 | 5.0 | 0.00 | 0.08 | 0.00 | 72 | 1011.6 |
| 20260510081021 | 58 | 0 | 1.0 | 5.0 | 0.00 | 0.08 | 0.00 | 73 | 1011.6 |
| 20260510080530 | 58 | 355 | 1.0 | 5.0 | 0.00 | 0.08 | 0.00 | 74 | 1011.4 |
| 20260510080109 | 59 | 355 | 1.0 | 5.0 | 0.00 | 0.08 | 0.00 | 74 | 1011.1 |
| 20260510075603 | 59 | 26 | 2.0 | 5.0 | 0.00 | 0.12 | 0.00 | 75 | 1010.9 |
| 20260510075141 | 59 | 5 | 1.0 | 3.0 | 0.00 | 0.12 | 0.00 | 77 | 1010.9 |
| 20260510074547 | 59 | 5 | 1.0 | 9.0 | 0.00 | 0.12 | 0.00 | 78 | 1010.9 |
| 20260510074019 | 60 | 5 | 3.0 | 9.0 | 0.00 | 0.12 | 0.00 | 79 | 1010.9 |
| 20260510073549 | 60 | 350 | 4.0 | 8.0 | 0.00 | 0.12 | 0.00 | 80 | 1010.9 |
| 20260510073340 | 60 | 348 | 3.0 | 6.0 | 0.00 | 0.12 | 0.00 | 80 | 1010.8 |
| 20260510073225 | 60 | 348 | 3.0 | 6.0 | 0.00 | 0.12 | 0.00 | 80 | 1010.8 |
| 20260510072759 | 60 | 344 | 2.0 | 6.0 | 0.00 | 0.12 | 0.00 | 80 | 1010.6 |
| 20260510072045 | 60 | 0 | 0.0 | 2.0 | 0.00 | 0.12 | 0.00 | 79 | 1010.4 |
| 20260510071603 | 60 | 0 | 0.0 | 3.0 | 0.00 | 0.12 | 0.00 | 79 | 1010.3 |
| 20260510071127 | 60 | 270 | 1.0 | 3.0 | 0.00 | 0.12 | 0.00 | 79 | 1010.4 |
| 20260510070520 | 60 | 269 | 1.0 | 3.0 | 0.00 | 0.12 | 0.00 | 79 | 1010.3 |
| 20260510070125 | 60 | 268 | 0.0 | 3.0 | 0.00 | 0.12 | 0.00 | 79 | 1010.3 |
| 20260510065522 | 60 | 266 | 1.0 | 3.0 | 0.00 | 0.23 | 0.00 | 79 | 1010.3 |
| 20260510065017 | 60 | 255 | 1.0 | 3.0 | 0.00 | 0.23 | 0.00 | 79 | 1010.2 |
| 20260510064557 | 60 | 0 | 0.0 | 1.0 | 0.00 | 0.23 | 0.00 | 79 | 1010.3 |
| 20260510064225 | 60 | 0 | 0.0 | 1.0 | 0.00 | 0.23 | 0.00 | 79 | 1010.3 |
| 20260510063528 | 61 | 0 | 0.0 | 2.0 | 0.00 | 0.23 | 0.00 | 78 | 1010.3 |
| 20260510063159 | 61 | 0 | 0.0 | 2.0 | 0.00 | 0.23 | 0.00 | 78 | 1010.3 |
| 20260510062605 | 61 | 254 | 0.0 | 2.0 | 0.00 | 0.23 | 0.00 | 78 | 1010.3 |
| 20260510062037 | 61 | 254 | 0.0 | 3.0 | 0.00 | 0.23 | 0.00 | 77 | 1010.4 |
| 20260510061633 | 61 | 254 | 1.0 | 3.0 | 0.00 | 0.23 | 0.00 | 77 | 1010.5 |
| 20260510061055 | 62 | 252 | 1.0 | 2.0 | 0.00 | 0.23 | 0.00 | 77 | 1010.5 |
| 20260510060520 | 62 | 248 | 0.0 | 3.0 | 0.00 | 0.23 | 0.00 | 77 | 1010.5 |
| 20260510060104 | 62 | 248 | 1.0 | 4.0 | 0.00 | 0.23 | 0.00 | 76 | 1010.5 |
| 20260510055613 | 62 | 248 | 1.0 | 4.0 | 0.00 | 0.35 | 0.00 | 76 | 1010.5 |
| 20260510055112 | 62 | 247 | 2.0 | 5.0 | 0.00 | 0.35 | 0.00 | 76 | 1010.3 |
| 20260510054540 | 62 | 241 | 2.0 | 5.0 | 0.00 | 0.35 | 0.00 | 77 | 1010.4 |
| 20260510054110 | 62 | 247 | 3.0 | 5.0 | 0.00 | 0.35 | 0.00 | 76 | 1010.6 |
| 20260510053536 | 62 | 269 | 1.0 | 6.0 | 0.00 | 0.35 | 0.00 | 76 | 1010.7 |
| 20260510053052 | 62 | 284 | 2.0 | 7.0 | 0.00 | 0.35 | 0.00 | 76 | 1010.8 |
| 20260510052527 | 62 | 283 | 2.0 | 7.0 | 0.00 | 0.35 | 0.00 | 76 | 1010.8 |
| 20260510052115 | 62 | 298 | 3.0 | 5.0 | 0.00 | 0.35 | 0.00 | 76 | 1010.7 |
| 20260510051600 | 62 | 244 | 1.0 | 5.0 | 0.00 | 0.35 | 0.00 | 75 | 1010.3 |
| 20260510051026 | 63 | 320 | 2.0 | 5.0 | 0.00 | 0.35 | 0.00 | 74 | 1010.6 |
| 20260510050519 | 63 | 254 | 2.0 | 5.0 | 0.00 | 0.35 | 0.00 | 74 | 1010.2 |
| 20260510050255 | 62 | 261 | 2.0 | 5.0 | 0.00 | 0.35 | 0.00 | 74 | 1010.2 |
| 20260510050207 | 62 | 261 | 2.0 | 5.0 | 0.00 | 0.35 | 0.00 | 74 | 1010.2 |
| 20260510050058 | 62 | 261 | 2.0 | 5.0 | 0.00 | 0.35 | 0.00 | 74 | 1010.2 |
| 20260510045531 | 62 | 243 | 2.0 | 5.0 | 0.00 | 0.52 | 0.00 | 74 | 1010.2 |
| 20260510045029 | 62 | 216 | 2.0 | 5.0 | 0.00 | 0.52 | 0.00 | 74 | 1010.1 |
| 20260510044540 | 62 | 247 | 1.0 | 5.0 | 0.00 | 0.52 | 0.00 | 74 | 1010.1 |
| 20260510044142 | 62 | 221 | 1.0 | 4.0 | 0.00 | 0.52 | 0.00 | 74 | 1010.1 |
| 20260510043835 | 62 | 227 | 1.0 | 4.0 | 0.00 | 0.52 | 0.00 | 74 | 1010.1 |
| 20260510043704 | 62 | 227 | 1.0 | 4.0 | 0.00 | 0.52 | 0.00 | 74 | 1010.1 |
| 20260510043545 | 62 | 227 | 1.0 | 4.0 | 0.00 | 0.52 | 0.00 | 74 | 1010.1 |
| 20260510043048 | 62 | 224 | 1.0 | 4.0 | 0.00 | 0.52 | 0.00 | 74 | 1010.0 |
| 20260510042542 | 62 | 228 | 1.0 | 4.0 | 0.00 | 0.52 | 0.00 | 74 | 1010.1 |
| 20260510042027 | 62 | 223 | 1.0 | 4.0 | 0.00 | 0.52 | 0.00 | 74 | 1010.0 |
| 20260510041711 | 62 | 234 | 1.0 | 4.0 | 0.00 | 0.52 | 0.00 | 74 | 1010.0 |
| 20260510041622 | 62 | 234 | 1.0 | 4.0 | 0.00 | 0.52 | 0.00 | 74 | 1010.0 |
| 20260510041028 | 62 | 217 | 1.0 | 5.0 | 0.00 | 0.52 | 0.00 | 74 | 1010.1 |
| 20260510040557 | 62 | 230 | 2.0 | 5.0 | 0.00 | 0.52 | 0.00 | 74 | 1010.1 |
| 20260510040042 | 62 | 227 | 1.0 | 4.0 | 0.00 | 0.52 | 0.00 | 74 | 1010.1 |
| 20260510035520 | 62 | 223 | 1.0 | 4.0 | 0.00 | 0.65 | 0.52 | 73 | 1010.0 |
| 20260510035047 | 62 | 229 | 1.0 | 3.0 | 0.00 | 0.65 | 0.52 | 73 | 1010.0 |
| 20260510034628 | 63 | 230 | 1.0 | 5.0 | 0.00 | 0.65 | 0.52 | 72 | 1009.9 |
| 20260510034547 | 63 | 230 | 1.0 | 5.0 | 0.00 | 0.65 | 0.52 | 72 | 1009.9 |
| 20260510034024 | 63 | 231 | 1.0 | 5.0 | 0.00 | 0.65 | 0.52 | 72 | 1009.9 |
| 20260510033617 | 63 | 223 | 2.0 | 5.0 | 0.00 | 0.65 | 0.52 | 72 | 1010.0 |
| 20260510033113 | 63 | 238 | 2.0 | 4.0 | 0.00 | 0.65 | 0.52 | 72 | 1010.0 |
| 20260510032555 | 63 | 238 | 2.0 | 4.0 | 0.00 | 0.65 | 0.52 | 72 | 1010.0 |
| 20260510032020 | 63 | 240 | 2.0 | 3.0 | 0.00 | 0.65 | 0.52 | 72 | 1010.0 |
| 20260510031859 | 63 | 237 | 1.0 | 4.0 | 0.00 | 0.65 | 0.52 | 72 | 1009.9 |
| 20260510031056 | 63 | 228 | 1.0 | 4.0 | 0.00 | 0.65 | 0.52 | 72 | 1010.0 |
| 20260510030603 | 63 | 236 | 2.0 | 4.0 | 0.00 | 0.65 | 0.52 | 72 | 1009.9 |
| 20260510030111 | 63 | 210 | 2.0 | 4.0 | 0.00 | 0.65 | 0.52 | 71 | 1009.9 |
| 20260510025548 | 63 | 240 | 2.0 | 5.0 | 0.00 | 0.71 | 0.52 | 72 | 1009.9 |
| 20260510025141 | 63 | 247 | 2.0 | 5.0 | 0.00 | 0.71 | 0.52 | 72 | 1009.8 |
| 20260510024612 | 63 | 244 | 2.0 | 4.0 | 0.00 | 0.71 | 0.52 | 72 | 1009.8 |
| 20260510024024 | 63 | 253 | 2.0 | 4.0 | 0.00 | 0.71 | 0.52 | 72 | 1009.8 |
| 20260510023520 | 63 | 248 | 1.0 | 4.0 | 0.00 | 0.71 | 0.52 | 72 | 1009.6 |
| 20260510023039 | 63 | 231 | 1.0 | 4.0 | 0.00 | 0.71 | 0.52 | 72 | 1009.7 |
| 20260510022743 | 63 | 223 | 1.0 | 3.0 | 0.00 | 0.71 | 0.52 | 72 | 1009.7 |
| 20260510022307 | 64 | 215 | 0.0 | 3.0 | 0.00 | 0.71 | 0.52 | 72 | 1009.7 |
| 20260510021806 | 64 | 0 | 0.0 | 3.0 | 0.00 | 0.71 | 0.52 | 71 | 1009.6 |
| 20260510021054 | 64 | 244 | 0.0 | 3.0 | 0.00 | 0.71 | 0.52 | 71 | 1009.5 |
| 20260510020517 | 64 | 245 | 0.0 | 4.0 | 0.00 | 0.71 | 0.52 | 70 | 1009.6 |
| 20260510020057 | 64 | 246 | 1.0 | 4.0 | 0.00 | 0.71 | 0.52 | 70 | 1009.4 |
| 20260510015520 | 64 | 0 | 0.0 | 4.0 | 0.00 | 0.83 | 0.52 | 69 | 1009.4 |
| 20260510015028 | 65 | 248 | 2.0 | 5.0 | 0.00 | 0.83 | 0.52 | 69 | 1009.4 |
| 20260510014628 | 65 | 240 | 3.0 | 5.0 | 0.00 | 0.83 | 0.52 | 69 | 1009.3 |
| 20260510014019 | 65 | 252 | 2.0 | 5.0 | 0.00 | 0.83 | 0.52 | 69 | 1009.2 |
| 20260510013520 | 65 | 241 | 2.0 | 8.0 | 0.00 | 0.83 | 0.52 | 69 | 1009.1 |
| 20260510013042 | 65 | 250 | 3.0 | 8.0 | 0.00 | 0.83 | 0.52 | 68 | 1009.0 |
| 20260510012524 | 65 | 246 | 3.0 | 6.0 | 0.00 | 0.83 | 0.52 | 68 | 1009.0 |
| 20260510012038 | 65 | 242 | 3.0 | 6.0 | 0.00 | 0.83 | 0.52 | 68 | 1009.0 |
| 20260510011549 | 66 | 242 | 2.0 | 4.0 | 0.00 | 0.83 | 0.52 | 68 | 1008.8 |
| 20260510011424 | 66 | 253 | 2.0 | 4.0 | 0.00 | 0.83 | 0.52 | 69 | 1008.7 |
| 20260510010812 | 66 | 254 | 2.0 | 4.0 | 0.00 | 0.83 | 0.52 | 68 | 1008.6 |
| 20260510010718 | 66 | 254 | 2.0 | 4.0 | 0.00 | 0.83 | 0.52 | 68 | 1008.6 |
| 20260510010050 | 66 | 252 | 1.0 | 7.0 | 0.00 | 0.83 | 0.52 | 68 | 1008.6 |
| 20260510005711 | 67 | 250 | 2.0 | 7.0 | 0.00 | 0.91 | 0.52 | 67 | 1008.6 |
| 20260510005148 | 67 | 256 | 3.0 | 7.0 | 0.00 | 0.91 | 0.52 | 66 | 1008.6 |
| 20260510005038 | 67 | 256 | 3.0 | 7.0 | 0.00 | 0.91 | 0.52 | 66 | 1008.6 |
| 20260510004633 | 67 | 259 | 3.0 | 7.0 | 0.00 | 0.91 | 0.52 | 65 | 1008.5 |
| 20260510004058 | 67 | 249 | 3.0 | 9.0 | 0.00 | 0.91 | 0.52 | 64 | 1008.3 |
| 20260510003802 | 68 | 242 | 4.0 | 10.0 | 0.00 | 0.91 | 0.52 | 64 | 1008.2 |
| 20260510003212 | 68 | 238 | 4.0 | 10.0 | 0.00 | 0.91 | 0.52 | 64 | 1008.0 |
| 20260510002544 | 68 | 253 | 4.0 | 9.0 | 0.00 | 0.91 | 0.52 | 63 | 1008.0 |
| 20260510002028 | 68 | 248 | 5.0 | 10.0 | 0.00 | 0.91 | 0.52 | 63 | 1008.0 |
| 20260510001605 | 69 | 261 | 5.0 | 10.0 | 0.00 | 0.91 | 0.52 | 63 | 1008.0 |
| 20260510001459 | 69 | 259 | 5.0 | 11.0 | 0.00 | 0.91 | 0.52 | 62 | 1007.9 |
| 20260510001042 | 69 | 259 | 5.0 | 11.0 | 0.00 | 0.91 | 0.52 | 62 | 1007.9 |
| 20260510000550 | 69 | 264 | 5.0 | 12.0 | 0.00 | 0.91 | 0.52 | 61 | 1007.9 |
| 20260509235653 | 69 | 242 | 5.0 | 10.0 | 0.00 | 0.95 | 0.52 | 60 | 1007.8 |
| 20260509235119 | 70 | 244 | 5.0 | 11.0 | 0.00 | 0.95 | 0.52 | 59 | 1007.7 |
| 20260509234545 | 70 | 253 | 4.0 | 12.0 | 0.00 | 0.95 | 0.52 | 59 | 1007.6 |
| 20260509234135 | 70 | 308 | 5.0 | 12.0 | 0.00 | 0.95 | 0.52 | 63 | 1007.6 |
| 20260509234046 | 70 | 308 | 5.0 | 12.0 | 0.00 | 0.95 | 0.52 | 63 | 1007.6 |
| 20260509233527 | 70 | 257 | 4.0 | 8.0 | 0.00 | 0.95 | 0.52 | 58 | 1007.4 |
| 20260509233058 | 71 | 248 | 3.0 | 7.0 | 0.00 | 0.95 | 0.52 | 57 | 1007.5 |
| 20260509232610 | 71 | 252 | 3.0 | 9.0 | 0.00 | 0.95 | 0.52 | 58 | 1007.3 |
| 20260509232020 | 71 | 264 | 3.0 | 9.0 | 0.00 | 0.95 | 0.52 | 56 | 1007.4 |
| 20260509231543 | 71 | 254 | 4.0 | 9.0 | 0.00 | 0.95 | 0.52 | 55 | 1007.4 |
| 20260509231311 | 71 | 240 | 5.0 | 11.0 | 0.00 | 0.95 | 0.52 | 55 | 1007.3 |
| 20260509230615 | 72 | 256 | 5.0 | 13.0 | 0.00 | 0.95 | 0.52 | 56 | 1007.3 |
| 20260509230041 | 72 | 260 | 5.0 | 13.0 | 0.00 | 0.95 | 0.52 | 55 | 1007.2 |
| 20260509225549 | 72 | 273 | 5.0 | 13.0 | 0.00 | 0.95 | 0.52 | 53 | 1007.1 |
| 20260509225141 | 72 | 283 | 5.0 | 13.0 | 0.00 | 0.95 | 0.52 | 54 | 1007.1 |
| 20260509224114 | 72 | 239 | 6.0 | 12.0 | 0.00 | 0.95 | 0.52 | 53 | 1007.0 |
| 20260509223551 | 73 | 240 | 7.0 | 15.0 | 0.00 | 0.95 | 0.52 | 51 | 1007.0 |
| 20260509223217 | 73 | 240 | 6.0 | 15.0 | 0.00 | 0.95 | 0.52 | 57 | 1006.8 |
| 20260509222519 | 73 | 263 | 6.0 | 15.0 | 0.00 | 0.95 | 0.52 | 52 | 1006.9 |
| 20260509222139 | 73 | 250 | 7.0 | 15.0 | 0.00 | 0.95 | 0.52 | 51 | 1007.0 |
| 20260509221559 | 73 | 240 | 6.0 | 15.0 | 0.00 | 0.95 | 0.52 | 53 | 1006.9 |
| 20260509221313 | 74 | 236 | 6.0 | 16.0 | 0.00 | 0.95 | 0.52 | 52 | 1006.9 |
| 20260509221221 | 74 | 236 | 6.0 | 16.0 | 0.00 | 0.95 | 0.52 | 52 | 1006.9 |
| 20260509220910 | 74 | 244 | 8.0 | 16.0 | 0.00 | 0.95 | 0.52 | 49 | 1006.9 |
| 20260509220114 | 74 | 236 | 7.0 | 15.0 | 0.00 | 0.95 | 0.52 | 51 | 1007.0 |
| 20260509215544 | 74 | 206 | 7.0 | 15.0 | 0.00 | 0.95 | 0.52 | 51 | 1006.9 |
| 20260509215156 | 75 | 254 | 8.0 | 15.0 | 0.00 | 0.95 | 0.52 | 50 | 1006.9 |
| 20260509214628 | 75 | 236 | 7.0 | 17.0 | 0.00 | 0.95 | 0.52 | 52 | 1006.9 |
| 20260509214027 | 75 | 233 | 8.0 | 17.0 | 0.00 | 0.95 | 0.52 | 50 | 1007.0 |
| 20260509213520 | 75 | 225 | 5.0 | 16.0 | 0.00 | 0.95 | 0.52 | 49 | 1006.9 |
| 20260509213154 | 75 | 227 | 7.0 | 16.0 | 0.00 | 0.95 | 0.52 | 48 | 1007.0 |
| 20260509213057 | 75 | 227 | 7.0 | 16.0 | 0.00 | 0.95 | 0.52 | 48 | 1007.0 |
| 20260509212828 | 75 | 240 | 8.0 | 15.0 | 0.00 | 0.95 | 0.52 | 47 | 1006.9 |
| 20260509212020 | 76 | 270 | 8.0 | 15.0 | 0.00 | 0.95 | 0.52 | 50 | 1006.8 |
| 20260509211540 | 76 | 242 | 6.0 | 15.0 | 0.00 | 0.95 | 0.52 | 50 | 1006.9 |
| 20260509211058 | 76 | 244 | 5.0 | 13.0 | 0.00 | 0.95 | 0.52 | 48 | 1006.9 |
| 20260509210628 | 76 | 238 | 7.0 | 13.0 | 0.00 | 0.95 | 0.52 | 50 | 1006.9 |
| 20260509210110 | 75 | 219 | 3.0 | 13.0 | 0.00 | 0.95 | 0.52 | 54 | 1006.9 |
| 20260509205642 | 75 | 237 | 5.0 | 13.0 | 0.00 | 0.95 | 0.52 | 52 | 1006.9 |
| 20260509205531 | 75 | 237 | 5.0 | 13.0 | 0.00 | 0.95 | 0.52 | 52 | 1006.9 |
| 20260509205150 | 75 | 229 | 5.0 | 11.0 | 0.00 | 0.95 | 0.52 | 59 | 1006.9 |
| 20260509205039 | 75 | 229 | 5.0 | 11.0 | 0.00 | 0.95 | 0.52 | 59 | 1006.9 |
| 20260509204640 | 75 | 221 | 5.0 | 11.0 | 0.00 | 0.95 | 0.52 | 53 | 1007.0 |
| 20260509204054 | 75 | 252 | 6.0 | 14.0 | 0.00 | 0.95 | 0.52 | 55 | 1007.1 |
| 20260509203521 | 75 | 257 | 5.0 | 14.0 | 0.00 | 0.95 | 0.52 | 56 | 1007.1 |
| 20260509203034 | 75 | 198 | 6.0 | 15.0 | 0.00 | 0.95 | 0.52 | 56 | 1007.2 |
| 20260509202625 | 74 | 194 | 6.0 | 15.0 | 0.00 | 0.95 | 0.52 | 56 | 1007.1 |
| 20260509202020 | 74 | 213 | 5.0 | 16.0 | 0.00 | 0.95 | 0.52 | 56 | 1007.2 |
| 20260509201559 | 74 | 228 | 5.0 | 16.0 | 0.00 | 0.95 | 0.52 | 62 | 1007.3 |
| 20260509201048 | 74 | 258 | 4.0 | 13.0 | 0.00 | 0.95 | 0.52 | 64 | 1007.4 |
| 20260509200523 | 74 | 243 | 6.0 | 13.0 | 0.00 | 0.95 | 0.52 | 57 | 1007.4 |
| 20260509200145 | 74 | 196 | 4.0 | 10.0 | 0.00 | 0.95 | 0.52 | 56 | 1007.6 |
| 20260509195757 | 74 | 240 | 4.0 | 15.0 | 0.00 | 0.95 | 0.52 | 59 | 1007.7 |
| 20260509195630 | 74 | 240 | 4.0 | 15.0 | 0.00 | 0.95 | 0.52 | 59 | 1007.7 |
| 20260509195042 | 74 | 254 | 6.0 | 15.0 | 0.00 | 0.95 | 0.52 | 58 | 1007.7 |
| 20260509194558 | 73 | 244 | 6.0 | 14.0 | 0.00 | 0.95 | 0.52 | 59 | 1007.8 |
| 20260509194026 | 73 | 144 | 4.0 | 19.0 | 0.00 | 0.95 | 0.52 | 65 | 1007.8 |
| 20260509193540 | 72 | 238 | 6.0 | 19.0 | 0.00 | 0.95 | 0.52 | 61 | 1007.8 |
| 20260509193039 | 73 | 201 | 5.0 | 15.0 | 0.00 | 0.95 | 0.52 | 59 | 1007.8 |